This demonstration page uses our WeatherBlox Daily Observations layout. Learn more.

Hourly Observations for November 28, 2016

Temp ( °F °C ) Dew Point ( °F °C ) Humidity (%) Winds ( mph kmh ) Pressure ( in mb ) Visibility ( mi km ) Precip ( " mm )
12:54 am 00:54 Clear 45 7.2 38 3.3 77 77 S 15 24 29.22 990 10 16.0934 0 0
1:54 am 01:54 Clear 44 6.7 37 2.8 76 76 SSW 15 24 29.21 989 10 16.0934 0 0
2:54 am 02:54 Clear 44 6.7 36 2.2 73 73 SW 14 22 29.2 989 10 16.0934 0 0
3:54 am 03:54 Clear 43 6.1 36 2.2 76 76 SW 13 20 29.18 988 10 16.0934 0 0
4:54 am 04:54 Clear 41 5 34 1 76 76 SW 8 13 29.18 988 10 16.0934 0 0
5:54 am 05:54 Clear 38 3.3 32 0 79 79 SSE 3 6 29.16 987 10 16.0934 0 0
6:54 am 06:54 Clear 35 1.7 32 0 89 89 S 8 13 29.18 988 10 16.0934 0 0
7:54 am 07:54 Sunny 38 3.3 32 0 79 79 W 5 7 29.17 988 10 16.0934 0 0
8:54 am 08:54 Sunny 40 4.4 33 0.6 77 77 WSW 5 7 29.18 988 10 16.0934 0 0
9:54 am 09:54 Sunny 46 7.8 34 1.1 63 63 W 13 20 29.19 989 10 16.0934 0 0
10:54 am 10:54 Sunny 52 11.1 29 -1.7 41 41 WNW 21 33 29.19 989 10 16.0934 0 0
11:54 am 11:54 Sunny 51 10.6 30 -1.1 44 44 W 14 22 29.18 988 10 16.0934 0 0
12:54 pm 12:54 Sunny 52 11.1 29 -1.7 41 41 W 17 28 29.16 987 10 16.0934 0 0
1:54 pm 13:54 Sunny 53 11.7 28 -2.2 38 38 W 21 33 29.14 987 10 16.0934 0 0
2:54 pm 14:54 Sunny 54 12.2 30 -1.1 40 40 W 18 30 29.13 986 10 16.0934 0 0
3:54 pm 15:54 Sunny 54 12.2 31 -0.6 42 42 W 12 19 29.14 987 10 16.0934 0 0
4:54 pm 16:54 Sunny 52 11.1 30 -1.1 43 43 WSW 8 13 29.16 988 10 16.0934 0 0
5:54 pm 17:54 Partly Cloudy 48 8.9 31 -0.6 52 52 SW 8 13 29.19 989 10 16.0934 0 0
6:54 pm 18:54 Mostly Clear 46 7.8 31 -0.6 56 56 SW 8 13 29.21 989 10 16.0934 0 0
7:54 pm 19:54 Clear 45 7.2 31 -0.6 58 58 WSW 9 15 29.23 990 10 16.0934 0 0
8:54 pm 20:54 Clear 44 6.7 29 -1.7 55 55 WSW 12 19 29.26 991 10 16.0934 0 0
9:54 pm 21:54 Clear 41 5 29 -1.7 62 62 NW 5 7 29.29 992 10 16.0934 0 0
10:54 pm 22:54 Clear 38 3.3 28 -2.2 68 68 Calm 29.31 993 10 16.0934 0 0
11:54 pm 23:54 Clear 37 2.8 28 -2.2 70 70 WSW 3 6 29.33 993 10 16.0934 0 0

Powered by AerisWeather